2023/02/22 00:00:00,46.1,-1.6
2023/02/22 00:10:00,46.0,-0.9
2023/02/22 00:20:00,45.9,-1.5
2023/02/22 00:30:00,45.8,-1.4
2023/02/22 00:40:00,45.8,-1.7
2023/02/22 00:50:00,45.7,-1.2
2023/02/22 01:00:00,45.7,-1.2
2023/02/22 01:10:00,45.6,-1.4
2023/02/22 01:20:00,45.6,-1.3
2023/02/22 01:30:00,45.6,-1.2
2023/02/22 01:40:00,45.5,-1.3
2023/02/22 01:50:00,45.5,-1.2
2023/02/22 02:00:00,45.5,-1.1
2023/02/22 02:10:00,45.5,-1.3
2023/02/22 02:20:00,45.5,-1.1
2023/02/22 02:30:00,45.5,-1.0
2023/02/22 02:40:00,45.5,-1.0
2023/02/22 02:50:00,45.5,-1.1
2023/02/22 03:00:00,45.5,-1.1
2023/02/22 03:10:00,45.5,-1.1
2023/02/22 03:20:00,45.5,-1.1
2023/02/22 03:30:00,45.4,-1.0
2023/02/22 03:40:00,45.4,-1.1
2023/02/22 03:50:00,45.4,-0.9
2023/02/22 04:00:00,45.4,-0.9
2023/02/22 04:10:00,45.4,-0.8
2023/02/22 04:20:00,45.4,-0.8
2023/02/22 04:30:00,45.3,-1.0
2023/02/22 04:40:00,45.3,-1.0
2023/02/22 04:50:00,45.3,-0.9
2023/02/22 05:00:00,45.2,-0.7
2023/02/22 05:10:00,45.2,-0.9
2023/02/22 05:20:00,45.2,-1.0
2023/02/22 05:30:00,45.1,-0.8
2023/02/22 05:40:00,45.1,-0.2
2023/02/22 05:50:00,45.1,-0.9
2023/02/22 06:00:00,45.0,-0.8
2023/02/22 06:10:00,45.0,-0.9
2023/02/22 06:20:00,45.0,-1.0
2023/02/22 06:30:00,44.9,-0.7
2023/02/22 06:40:00,44.9,-0.9
2023/02/22 06:50:00,44.9,-0.9
2023/02/22 07:00:00,44.9,-0.8
2023/02/22 07:10:00,45.0,-0.9
2023/02/22 07:20:00,45.0,-0.6
2023/02/22 07:30:00,45.1,-0.6
2023/02/22 07:40:00,45.0,-0.2
2023/02/22 07:50:00,44.8,-0.2
2023/02/22 08:00:00,44.7,-0.3
2023/02/22 08:10:00,44.7, 0.1
2023/02/22 08:20:00,44.7, 0.3
2023/02/22 08:30:00,44.6, 0.6
2023/02/22 08:40:00,44.6, 0.7
2023/02/22 08:50:00,44.6, 1.2
2023/02/22 09:00:00,44.5, 1.4
2023/02/22 09:10:00,44.5, 1.8
2023/02/22 09:20:00,44.4, 2.5
2023/02/22 09:30:00,44.4, 2.8
2023/02/22 09:40:00,44.4, 3.2
2023/02/22 09:50:00,44.3, 3.5
2023/02/22 10:00:00,44.1, 4.1
2023/02/22 10:10:00,44.0, 4.9
2023/02/22 10:20:00,44.0, 4.3
2023/02/22 10:30:00,44.0, 4.3
2023/02/22 10:40:00,44.0, 4.5
2023/02/22 10:50:00,43.8, 4.2
2023/02/22 11:00:00,43.6, 4.1
2023/02/22 11:10:00,43.5, 4.4
2023/02/22 11:20:00,43.3, 4.4
2023/02/22 11:30:00,43.2, 4.0
2023/02/22 11:40:00,43.1, 5.7
2023/02/22 11:50:00,42.8, 6.3
2023/02/22 12:00:00,42.6, 5.1
2023/02/22 12:10:00,42.5, 5.9
2023/02/22 12:20:00,42.1, 6.0
2023/02/22 12:30:00,41.9, 5.6
2023/02/22 12:40:00,41.8, 5.3
2023/02/22 12:50:00,41.6, 5.6
2023/02/22 13:00:00,41.6, 5.9
2023/02/22 13:10:00,41.4, 6.5
2023/02/22 13:20:00,41.2, 7.3
2023/02/22 13:30:00,40.9, 8.1
2023/02/22 13:40:00,40.7, 8.2
2023/02/22 13:50:00,41.0, 7.1
2023/02/22 14:00:00,41.0, 7.2
2023/02/22 14:10:00,40.8, 5.6
2023/02/22 14:20:00,40.6, 7.0
2023/02/22 14:30:00,40.3, 9.1
2023/02/22 14:40:00,40.1,10.2
2023/02/22 14:50:00,39.6,10.2
2023/02/22 15:00:00,39.2,11.8
2023/02/22 15:10:00,39.0,10.0
2023/02/22 15:20:00,38.5,11.2
2023/02/22 15:30:00,38.0,12.1
2023/02/22 15:40:00,38.0,11.3
2023/02/22 15:50:00,37.8,10.2
2023/02/22 16:00:00,37.6, 9.1
2023/02/22 16:10:00,37.3, 9.5
2023/02/22 16:20:00,37.4, 5.7
2023/02/22 16:30:00,37.3, 4.2
2023/02/22 16:40:00,37.5, 3.9
2023/02/22 16:50:00,37.5, 3.4
2023/02/22 17:00:00,37.5, 3.2
2023/02/22 17:10:00,37.4, 2.9
2023/02/22 17:20:00,37.3, 2.4
2023/02/22 17:30:00,37.3, 2.2
2023/02/22 17:40:00,37.3, 1.8
2023/02/22 17:50:00,37.2, 1.5
2023/02/22 18:00:00,37.2, 1.2
2023/02/22 18:10:00,37.2, 1.0
2023/02/22 18:20:00,37.1, 1.0
2023/02/22 18:30:00,37.1, 0.7
2023/02/22 18:40:00,37.1, 0.7
2023/02/22 18:50:00,37.0, 0.6
2023/02/22 19:00:00,37.0, 0.7
2023/02/22 19:10:00,37.0, 0.6
2023/02/22 19:20:00,37.0, 0.8
2023/02/22 19:30:00,36.9, 0.5
2023/02/22 19:40:00,36.9, 0.6
2023/02/22 19:50:00,36.9, 0.7
2023/02/22 20:00:00,36.9, 0.4
2023/02/22 20:10:00,36.8, 0.6
2023/02/22 20:20:00,36.8, 0.4
2023/02/22 20:30:00,36.8, 0.4
2023/02/22 20:40:00,36.8, 0.3
2023/02/22 20:50:00,36.8, 0.2
2023/02/22 21:00:00,36.7, 0.3
2023/02/22 21:10:00,36.7, 0.3
2023/02/22 21:20:00,36.7, 0.4
2023/02/22 21:30:00,36.8, 0.4
2023/02/22 21:40:00,36.7, 0.3
2023/02/22 21:50:00,36.7, 0.4
2023/02/22 22:00:00,36.6, 0.2
2023/02/22 22:10:00,36.6, 0.1
2023/02/22 22:20:00,36.6, 0.1
2023/02/22 22:30:00,36.6,-0.1
2023/02/22 22:40:00,36.7,-0.1
2023/02/22 22:50:00,36.7,-0.1
2023/02/22 23:00:00,36.6, 0.2
2023/02/22 23:10:00,36.5, 0.2
2023/02/22 23:20:00,36.5, 0.3
2023/02/22 23:30:00,36.5, 0.1
2023/02/22 23:40:00,36.5, 0.2
2023/02/22 23:50:00,36.5, 0.4
